Fort Eustis, VA

1:22 PM EST on November 18, 2017 (GMT -0500)
Felker Army Air Field

Weather History for KFAF - March, 2014

Change the Weather History Date:

Sunday, March 16, 2014

  Actual Average Record
Temperature  
Mean Temperature 44 °F -  
Max Temperature 55 °F 55 °F 82 °F (2016)
Min Temperature 33 °F 40 °F 26 °F (2017)
Degree Days  
Heating Degree Days 21    
Moisture  
Dew Point 32 °F    
Average Humidity 68    
Maximum Humidity 93    
Minimum Humidity 38    
Precipitation  
Precipitation 0.27 in - - ()
Sea Level Pressure  
Sea Level Pressure 30.04 in    
Wind  
Wind Speed 8 mph (ENE)    
Max Wind Speed 16 mph    
Max Gust Speed 29 mph    
Visibility 9 miles    
Events Rain    
Averages and records for this station are not official NWS values.
T = Trace of Precipitation, MM = Missing Value Source: NWS Daily Summary

Daily Weather History Graph

Daily Weather History Graph

Search for Another Location

Airport or City:

Trip Planner

Search our weather history database for the weather conditions in past years. The results will help you decide how hot, cold, wet, or windy it might be!

Date:

Astronomy

Mar. 16, 2014 Rise Set
Actual Time 7:15 AM EDT 7:14 PM EDT
Civil Twilight 6:50 AM EDT 7:40 PM EDT
Nautical Twilight 6:19 AM EDT 8:10 PM EDT
Astronomical Twilight 5:49 AM EDT 8:41 PM EDT
Moon 7:28 PM EDT (3/16) 6:58 AM EDT (3/16)
Length of Visible Light 12h 50m
Length of Day
11h 58m
Full, 100% of the Moon is Illuminated
Mar 16
Full
Mar 16
Full
Mar 23
Last Quarter
Mar 30
New
Apr 7
First Quarter

Hourly Weather History & Observations

Time (EDT) Temp. Windchill Dew Point Humidity Pressure Visibility Wind Dir Wind Speed Gust Speed Precip Events Conditions
12:58 AM 55.4 °F - 30.4 °F 38% 30.03 in 10.0 mi NE 4.6 mph - N/A   Clear
1:58 AM 52.9 °F - 29.5 °F 41% 30.05 in 10.0 mi NE 2.3 mph - N/A   Clear
2:58 AM 50.4 °F - 28.8 °F 43% 30.05 in 10.0 mi NE 4.6 mph - N/A   Clear
3:58 AM 49.6 °F - 27.7 °F 43% 30.05 in 10.0 mi NE 2.3 mph - N/A   Clear
4:58 AM 47.8 °F - 27.9 °F 46% 30.05 in 10.0 mi ENE 2.3 mph - N/A   Clear
5:58 AM 47.3 °F - 28.6 °F 48% 30.06 in 10.0 mi ENE 5.8 mph - N/A   Clear
6:58 AM 46.2 °F 41.7 °F 30.2 °F 54% 30.08 in 10.0 mi ENE 9.2 mph - N/A   Mostly Cloudy
7:58 AM 46.6 °F - 30.7 °F 54% 30.09 in 10.0 mi ENE 9.2 mph 18.4 mph N/A   Overcast
8:58 AM 46.8 °F - 31.1 °F 55% 30.12 in 10.0 mi ENE 10.4 mph 18.4 mph N/A   Mostly Cloudy
9:58 AM 48.7 °F - 32.5 °F 54% 30.12 in 10.0 mi ENE 12.7 mph 20.7 mph N/A   Scattered Clouds
10:58 AM 48.6 °F - 31.8 °F 52% 30.12 in 10.0 mi ENE 15.0 mph 25.3 mph N/A   Overcast
11:58 AM 49.3 °F - 31.1 °F 50% 30.12 in 10.0 mi ENE 8.1 mph 17.3 mph N/A   Overcast
12:58 PM 48.6 °F - 30.7 °F 50% 30.13 in 10.0 mi ENE 9.2 mph - N/A   Overcast
1:58 PM 47.7 °F - 31.1 °F 53% 30.10 in 10.0 mi NE 8.1 mph - N/A   Scattered Clouds
2:58 PM 46.9 °F - 30.6 °F 53% 30.09 in 10.0 mi ENE 12.7 mph - N/A   Partly Cloudy
3:46 PM 46.4 °F 41.1 °F 32.0 °F 57% 30.07 in 10.0 mi ENE 11.5 mph - N/A   Light Drizzle
3:58 PM 46.2 °F 42.2 °F 33.1 °F 60% 30.07 in 10.0 mi ENE 8.1 mph 16.1 mph 0.00 in   Drizzle
4:09 PM 44.6 °F 38.4 °F 32.0 °F 61% 30.05 in 10.0 mi NE 12.7 mph - N/A   Mostly Cloudy
4:22 PM 44.6 °F 39.7 °F 32.0 °F 61% 30.06 in 10.0 mi ENE 9.2 mph - N/A   Light Drizzle
4:58 PM 43.9 °F 38.3 °F 33.4 °F 67% 30.05 in 10.0 mi NE 10.4 mph - 0.00 in   Light Drizzle
5:58 PM 41.5 °F 35.4 °F 35.6 °F 79% 30.02 in 10.0 mi ENE 10.4 mph 17.3 mph 0.01 in Rain Light Rain
6:23 PM 41.0 °F 37.1 °F 35.6 °F 81% 30.02 in 10.0 mi Variable 5.8 mph - N/A   Heavy Drizzle
6:53 PM 39.2 °F 33.0 °F 32.0 °F 75% 30.03 in 10.0 mi ENE 9.2 mph - N/A   Drizzle
6:58 PM 38.5 °F 32.1 °F 33.4 °F 82% 30.03 in 10.0 mi ENE 9.2 mph - 0.01 in   Heavy Drizzle
7:58 PM 37.4 °F 31.4 °F 34.2 °F 88% 30.00 in 10.0 mi ENE 8.1 mph 17.3 mph 0.02 in   Drizzle
8:03 PM 37.4 °F 29.8 °F 33.8 °F 87% 29.99 in 10.0 mi ENE 11.5 mph 21.9 mph N/A   Light Drizzle
8:08 PM 37.4 °F 29.8 °F 33.8 °F 87% 29.99 in 10.0 mi East 11.5 mph 21.9 mph N/A   Drizzle
8:13 PM 37.4 °F 29.8 °F 33.8 °F 87% 29.99 in 10.0 mi East 11.5 mph 18.4 mph N/A   Drizzle
8:58 PM 36.1 °F 28.7 °F 33.1 °F 89% 29.99 in 9.0 mi East 10.4 mph 23.0 mph 0.02 in   Drizzle
9:53 PM 35.6 °F 28.0 °F 32.0 °F 87% 29.99 in 5.0 mi ENE 10.4 mph 20.7 mph N/A Rain Light Rain
9:58 PM 34.9 °F 28.3 °F 32.2 °F 90% 30.00 in 5.0 mi ENE 8.1 mph 18.4 mph 0.01 in Rain Light Rain
10:23 PM 33.8 °F 25.3 °F 32.0 °F 93% 29.98 in 4.0 mi NE 11.5 mph 28.8 mph N/A Rain Rain
10:33 PM 33.8 °F 25.8 °F 32.0 °F 93% 29.98 in 5.0 mi NE 10.4 mph 18.4 mph N/A Rain Rain
10:48 PM 33.8 °F 23.5 °F 32.0 °F 93% 29.96 in 5.0 mi ENE 16.1 mph 21.9 mph N/A Rain Rain
10:53 PM 33.8 °F 26.4 °F 32.0 °F 93% 29.97 in 5.0 mi ENE 9.2 mph 20.7 mph N/A Rain Rain
10:58 PM 34.3 °F 26.5 °F 32.2 °F 92% 29.98 in 5.0 mi NE 10.4 mph 20.7 mph 0.12 in Rain Rain
11:58 PM 34.9 °F 26.2 °F 32.7 °F 92% 29.96 in 6.0 mi ENE 12.7 mph 17.3 mph 0.08 in Rain Light Rain